SCP
0 0 0 0 0 0 0 0 0 0 0 0 0 0 0 0 0 0 0 0 0 0
0 0 0 0 0 0 0 0 0 0 0 0 0 0 0 0 0 0 0 0 0 0
0 0 0 0 0 0 0 0 0 0 0 0 0 0 0 0 0 0 0 0 0 0
0 0 0 0 0 0 0 0 0 0 0 0 0 0 0 0 0 0 0 0 0 0
0 0 0 0 0 0 0 0 0 0 0 0 0 0 0 0 0 0 0 0 0 0
0 0 0 0 0 0 0 0 0 0 0 0 0 0 0 0 0 0 0 0 0 0
0 0 0 0 0 0 0 0 0 0 0 0 0 0 0 0 0 0 0 0 0 0
0 0 0 0 0 0 0 0 0 0 0 0 0 0 0 0 0 0 0 0 0 0
0 0 0 0 0 0 0 0 0 0 0 0 0 0 -0 -0 0 0 0 0 0 0
0 0 0 0 0 0 0 0 0 0 0 0 0 0 0 -0 0 0 0 0 0 0
0 0 0 0 0 0 0 0 0 0 0 0 0 0 0 0 0 0 0 0 0 0
0 0 0 0 0 0 0 0 0 0 0 0 0 0 0 0 0 0 0 0 0 0
0 0 0 0 0 0 0 0 0 0 0 0 0 0 0 0 0 0 0 0 0 -0
0 0 0 0 0 0 0 0 0 0 0 0 0 0 0 0 0 0 0 0 0 0
Wind_Speed_500mb
35 37 40 43 47 56 63 68 66 58 51 41 43 45 49 50 47 47 47 47 50 46
33 35 38 40 43 51 57 61 69 63 55 51 51 50 51 53 54 50 47 46 50 53
33 32 34 38 40 45 52 56 64 63 59 55 52 57 59 60 55 51 45 50 53 60
33 31 32 39 37 43 49 54 59 61 58 57 58 60 63 60 57 51 48 51 56 64
33 33 33 38 38 43 49 47 54 57 54 55 61 64 65 65 60 56 56 55 60 68
33 33 34 36 38 44 50 50 52 56 52 54 60 65 64 66 69 60 58 56 60 66
31 31 31 34 38 43 50 52 55 56 50 54 60 60 63 65 72 67 62 58 58 62
27 28 28 33 36 40 49 52 54 55 53 52 58 59 61 64 71 74 68 64 61 59
24 26 29 31 33 37 45 50 51 55 55 54 56 55 59 63 68 76 76 70 65 62
22 25 28 31 30 35 42 46 50 52 53 53 54 56 56 61 67 71 77 75 67 66
22 24 28 29 31 33 39 46 49 50 51 50 53 54 55 58 64 69 71 75 68 66
22 24 26 29 31 33 38 44 48 48 49 50 52 55 55 58 61 67 70 71 71 69
22 24 26 28 29 32 36 40 45 47 49 50 54 56 57 58 59 64 66 68 69 69
20 23 26 25 28 29 33 36 43 46 49 50 53 56 57 59 61 63 64 68 70 67
Wind_Direction_500mb
22 23 18 15 16 15 16 17 16 15 20 19 15 12 11 7 6 4 4 8 8 11
25 24 21 14 16 15 13 12 14 17 19 24 22 18 18 13 10 5 7 14 16 17
28 25 24 18 16 15 11 11 13 16 18 26 26 24 24 18 10 10 19 19 22 24
32 29 28 24 18 14 9 10 12 16 20 29 28 26 26 19 17 21 25 24 25 30
37 35 34 26 21 14 12 13 13 17 22 30 30 28 26 25 25 29 29 25 28 29
38 35 31 28 24 23 21 23 19 20 23 28 28 25 27 29 32 34 36 32 32 31
37 34 30 32 28 25 25 25 26 24 27 29 30 23 25 32 38 40 41 40 39 38
37 35 39 36 31 25 24 26 25 30 33 34 31 22 27 32 39 44 45 43 44 44
39 41 43 40 34 26 23 26 27 32 33 37 36 28 31 34 40 45 46 42 45 45
46 48 47 43 35 26 22 26 31 34 36 38 39 34 34 37 42 45 49 45 44 47
54 56 52 44 37 28 22 29 34 36 38 39 43 36 38 39 44 47 48 51 46 49
60 59 53 45 36 30 27 32 35 39 39 41 45 42 41 41 43 48 49 49 49 50
59 52 49 44 40 34 32 38 39 43 46 44 45 45 44 43 44 48 51 52 53 52
58 51 50 49 48 45 42 43 45 46 49 48 45 45 44 43 44 46 49 52 53 54
Wind_Speed_850mb
35 37 40 43 47 56 63 68 66 58 51 41 43 45 49 50 47 47 47 47 50 46
33 35 38 40 43 51 57 61 69 63 55 51 51 50 51 53 54 50 47 46 50 53
33 32 34 38 40 45 52 56 64 63 59 55 52 57 59 60 55 51 45 50 53 60
33 31 32 39 37 43 49 54 59 61 58 57 58 60 63 60 57 51 48 51 56 64
33 33 33 38 38 43 49 47 54 57 54 55 61 64 65 65 60 56 56 55 60 68
33 33 34 36 38 44 50 50 52 56 52 54 60 65 64 66 69 60 58 56 60 66
31 31 31 34 38 43 50 52 55 56 50 54 60 60 63 65 72 67 62 58 58 62
27 28 28 33 36 40 49 52 54 55 53 52 58 59 61 64 71 74 68 64 61 59
24 26 29 31 33 37 45 50 51 55 55 54 56 55 59 63 68 76 76 70 65 62
22 25 28 31 30 35 42 46 50 52 53 53 54 56 56 61 67 71 77 75 67 66
22 24 28 29 31 33 39 46 49 50 51 50 53 54 55 58 64 69 71 75 68 66
22 24 26 29 31 33 38 44 48 48 49 50 52 55 55 58 61 67 70 71 71 69
22 24 26 28 29 32 36 40 45 47 49 50 54 56 57 58 59 64 66 68 69 69
20 23 26 25 28 29 33 36 43 46 49 50 53 56 57 59 61 63 64 68 70 67
Wind_Direction_850mb
22 23 18 15 16 15 16 17 16 15 20 19 15 12 11 7 6 4 4 8 8 11
25 24 21 14 16 15 13 12 14 17 19 24 22 18 18 13 10 5 7 14 16 17
28 25 24 18 16 15 11 11 13 16 18 26 26 24 24 18 10 10 19 19 22 24
32 29 28 24 18 14 9 10 12 16 20 29 28 26 26 19 17 21 25 24 25 30
37 35 34 26 21 14 12 13 13 17 22 30 30 28 26 25 25 29 29 25 28 29
38 35 31 28 24 23 21 23 19 20 23 28 28 25 27 29 32 34 36 32 32 31
37 34 30 32 28 25 25 25 26 24 27 29 30 23 25 32 38 40 41 40 39 38
37 35 39 36 31 25 24 26 25 30 33 34 31 22 27 32 39 44 45 43 44 44
39 41 43 40 34 26 23 26 27 32 33 37 36 28 31 34 40 45 46 42 45 45
46 48 47 43 35 26 22 26 31 34 36 38 39 34 34 37 42 45 49 45 44 47
54 56 52 44 37 28 22 29 34 36 38 39 43 36 38 39 44 47 48 51 46 49
60 59 53 45 36 30 27 32 35 39 39 41 45 42 41 41 43 48 49 49 49 50
59 52 49 44 40 34 32 38 39 43 46 44 45 45 44 43 44 48 51 52 53 52
58 51 50 49 48 45 42 43 45 46 49 48 45 45 44 43 44 46 49 52 53 54